Regional Weather Roundup
Issued by NWS

Home | Current Version | Previous Version | Text Only | Print | Product List | Glossary Off
Versions: 1 2 3 4 5 6 7 8 9 10 11 12 13 14 15 16 17 18 19 20 21 22 23 24 25 26 27 28 29 30 31 32 33 34 35 36 37 38 39 40 41 42 43 44 45 46 47 48 49 50

000
ASUS43 KFSD 141710
RWRSD

WEATHER ROUNDUP FOR SOUTH DAKOTA
NATIONAL WEATHER SERVICE SIOUX FALLS SD
1100 AM CST THU DEC 14 2017

NOTE: "FAIR" INDICATES FEW OR NO CLOUDS BELOW 12,000 FEET WITH NO
SIGNIFICANT WEATHER AND/OR OBSTRUCTIONS TO VISIBILITY.


SDZ001>005-009-010-012>017-141800-
NORTHWEST AND NORTH CENTRAL SOUTH DAKOTA

CITY           SKY/WX    TMP DP  RH WIND       PRES   REMARKS
BUFFALO          N/A     32  28  85 NW22G33   30.13R WCI  19
FAITH            N/A     32  31  96 NW21      30.14R WCI  20
MOBRIDGE       CLOUDY    35  29  78 N20G29    30.08R WCI  24
$$

SDZ012>016-024>037-041>051-057-063-072>074-141800-
SOUTHWEST AND SOUTH CENTRAL SOUTH DAKOTA

CITY           SKY/WX    TMP DP  RH WIND       PRES   REMARKS
RAPID CTY ARPT FLURRIES  33  23  66 NW31G43   30.18R WCI  19
PIERRE         CLOUDY    35  32  88 NW18      30.10R WCI  24
CUSTER         CLOUDY    25  14  63 NW10G22   30.11R WCI  15
ELLSWORTH AFB  FLURRIES  32  25  74 NW28G38   30.18R WCI  18
PHILIP         MIX PCPN  34  34 100 NW21G31   30.16R WCI  22
PINE RIDGE     CLOUDY    34  25  69 N18G30    30.18R WCI  23
SPEARFISH      FLURRIES  28  23  80 NW20G32   30.22R WCI  15
WINNER         CLOUDY    36  33  89 NW17      30.10R
$$

SDZ004>011-016>023-039-040-141800-
NORTHEAST SOUTH DAKOTA

CITY           SKY/WX    TMP DP  RH WIND       PRES   REMARKS
ABERDEEN       FLURRIES  32  31  96 NW14      30.07R WCI  22
WATERTOWN      FLURRIES  29  28  96 NW6       30.01R WCI  23
BROOKINGS      CLOUDY    30  27  88 NW6       30.03S WCI  24
SISSETON         N/A     25  21  85 CALM      30.06R
$$

SDZ017-020-022-023-036>040-048>070-141800-
SOUTHEAST SOUTH DAKOTA

CITY           SKY/WX    TMP DP  RH WIND       PRES   REMARKS
SIOUX FALLS    PTSUNNY   35  29  78 VRB5      30.04S
HURON          CLOUDY    34  28  79 W6        30.06R WCI  29
CHAMBERLAIN    LGT RAIN  36  36 100 NW17      30.08R
MITCHELL       CLOUDY    35  28  75 NW7       30.08R WCI  29
YANKTON        PTSUNNY   35  26  69 NW12      30.07R WCI  27
$$

ABBREVIATIONS USED IN REMARKS
   TC - TEMPERATURE IN CELSIUS
  WCI - WIND CHILL INDEX
   HX - HEAT INDEX
  VSB - VISIBILITY





USA.gov is the U.S. government's official web portal to all federal, state and local government web resources and services.